sat.trackr.live / text

‹ back to catalog

YAOGAN-30 11A

NORAD 49026 · 2021-065A

PAYLOAD ACTIVE UNKNOWN

§ Identity

Operator
Country
PRC
Launch date
2021-07-19
Launch site
XICLF
Launch vehicle
Mass (kg)
RCS (m²)

External: N2YO · Heavens-Above · Gunter

§ Orbital elements

Epoch: 2026-05-25T04:48:35.435232Z

Period
95.84 min
Inclination
34.9941°
Eccentricity
0.0005405
Mean motion
15.02577641 rev/d
Perigee alt
555.2 km
Apogee alt
562.7 km
Semi-major
6,937.1 km
B*
1.7667e-4
RAAN
53.2063°
Arg perigee
304.1150°
Mean anomaly
55.9045°
Rev number
26,518

§ Raw data

YAOGAN-30 11A1 49026U 21065A   26145.20041013  .00002370  00000+0  17667-3 0  99952 49026  34.9941  53.2063 0005405 304.1150  55.9045 15.02577641265188

JSON: /api/v1/satellites/49026 · /tle

For live sub-satellite position, see the globe view (requires WebGL).

§ Visibility from observer

Set your observer location to see the next 7 days of passes ≥ 10°. The values pass through the URL so the page stays shareable.

No JS? Fill the form by hand. The geolocation button needs JavaScript.